www.pogodaiklimat.ru

Погода и климат >> Архив погоды >> Финляндия >> Мультия Кархила


ПОГОДА в Мультия Кархила

  • Прогноз погоды в Мультия Кархила
  • Монитор погоды в Мультия Кархила

АРХИВ ПОГОДЫ в Мультия Кархила

Время (UTC), дата Ветер
(напр.,м/с)
 
Видим.   Явления Облачность Т
(С)
Тd
(С)
f
(%)
Тe
(С)
Тes
(С)
Комфортность P
(гПа)
Po
(гПа)
Тmin
(С)
Tmax
(С)
R
(мм)
R24
(мм)
S
(см)
21 10.06 ЮЗ 3 н/о н/о +10.9 +7.4 79 +9 +9 1018.0 990.4
00 11.06 ЮЗ 2 н/о н/о +10.2 +7.5 83 +9 +9 1019.2 991.6
03 11.06 З 2 н/о н/о +8.1 +7.5 96 +6 +6 1020.5 992.6
06 11.06 С 3 н/о н/о +14.0 +7.1 63 +13 +13 1021.6 994.2 +7.2 +15.5
09 11.06 С 2 н/о н/о +14.8 +7.0 60 +15 +15 1023.0 995.7
12 11.06 С 3 н/о н/о +14.4 +3.6 48 +14 +14 1023.9 996.5
15 11.06 С 3 н/о н/о +15.4 +3.3 44 +15 +15 1024.3 996.9
18 11.06 С 4 н/о н/о +10.8 -1.2 43 +9 +9 1025.9 998.1 +10.8 +16.5
21 11.06 С 3 н/о н/о +5.5 -1.2 62 +3 +3 1027.6 999.3
00 12.06 СВ 3 н/о н/о +2.6 +0.6 87 -2 -2 1028.8 1000.1
03 12.06 С 2 н/о н/о +4.6 +2.2 84 +2 +2 1029.0 1000.5
06 12.06 СВ 6 н/о н/о +9.2 +1.5 59 +6 +6 1029.1 1001.0 +1.8 +10.8
09 12.06 СВ 5 н/о н/о +11.9 +1.1 48 +10 +10 1029.4 1001.6
12 12.06 В 5 н/о н/о +14.5 +1.5 41 +13 +13 1027.9 1000.4
15 12.06 В 4 н/о н/о +14.6 +1.7 42 +14 +14 1026.9 999.4
18 12.06 В 4 н/о н/о +12.5 +1.5 47 +11 +11 1026.9 999.2 +9.2 +15.0
21 12.06 В 4 н/о н/о +9.3 +2.3 62 +7 +7 1027.0 999.0
00 13.06 В 3 н/о н/о +7.8 +2.3 68 +5 +5 1027.1 999.0
03 13.06 В 4 н/о н/о +8.6 +2.9 67 +6 +6 1025.9 997.8
06 13.06 В 5 н/о н/о +9.5 +3.4 66 +6 +6 1024.6 996.7 +7.4 +12.6
09 13.06 В 6 н/о н/о +10.4 +3.4 62 +7 +7 1024.2 996.4
12 13.06 В 6 н/о н/о +12.4 +4.6 59 +10 +10 1022.2 994.6
15 13.06 В 6 н/о н/о +15.3 +6.7 56 +14 +14 1019.5 992.3
18 13.06 В 4 н/о н/о +14.3 +7.4 63 +13 +13 1018.8 991.5 +9.2 +15.7
21 13.06 СВ 4 н/о н/о +12.2 +7.9 75 +10 +10 1019.0 991.5
00 14.06 В 4 н/о н/о +11.6 +6.0 68 +10 +10 1018.0 990.5
03 14.06 СВ 3 н/о н/о +11.1 +7.1 76 +9 +9 1017.3 989.8
06 14.06 В 5 н/о н/о +12.5 +8.0 74 +10 +10 1017.3 989.9 +10.9 +14.3
09 14.06 В 4 н/о н/о +14.3 +9.4 72 +13 +13 1017.2 989.9
12 14.06 ЮВ 3 н/о н/о +15.2 +10.2 72 +15 +15 1016.9 989.7
15 14.06 ЮВ 2 н/о н/о +14.2 +10.5 78 +14 +14 1015.9 988.7
18 14.06 ЮВ 1 н/о н/о +11.3 +10.7 96 +11 +11 1015.2 987.7 +11.3 +16.1 0.1
21 14.06 ЮВ 1 н/о н/о +11.0 +10.7 98 +11 +11 1014.6 987.1
00 15.06 С 1 н/о н/о +11.0 +10.8 99 +11 +11 1013.9 986.4
03 15.06 З 1 н/о н/о +11.1 +11.0 99 +11 +11 1014.2 986.8
06 15.06 З 5 н/о н/о +10.7 +10.5 99 +8 +8 1015.0 987.5 +10.7 +11.9 2
09 15.06 С 1 н/о н/о +12.8 +12.2 96 +13 +13 1015.6 988.2
12 15.06 СЗ 2 н/о н/о +15.4 +11.0 75 +15 +15 1015.9 988.8
15 15.06 З 1 н/о н/о +17.5 +9.0 57 +19 +19 1015.6 988.7
18 15.06 З 3 н/о н/о +17.3 +12.1 71 +17 +17 1015.4 988.5 +10.6 +18.7
21 15.06 З 3 н/о н/о +11.5 +10.8 95 +10 +10 1015.9 988.5
00 16.06 З 2 н/о н/о +9.2 +9.0 99 +7 +7 1016.1 988.4
03 16.06 З 2 н/о н/о +9.8 +9.6 99 +8 +8 1016.0 988.3
06 16.06 З 1 н/о н/о +16.9 +11.9 72 +18 +18 1014.9 987.9 +8.7 +17.3
09 16.06 З 2 н/о н/о +19.2 +10.9 59 +21 +21 комфорт 1014.0 987.3
12 16.06 Ю 1 н/о н/о +20.4 +10.3 52 +23 +23 комфорт 1012.8 986.2
15 16.06 ЮЗ 2 н/о н/о +21.8 +10.5 49 +24 +24 комфорт 1011.7 985.3
18 16.06 З 4 н/о н/о +21.1 +10.3 50 +23 +23 комфорт 1011.0 984.6 +16.6 +22.3
21 16.06 З 3 н/о н/о +14.0 +11.4 84 +13 +13 1012.0 984.9
00 17.06 З 2 н/о н/о +11.2 +10.4 95 +10 +10 1012.5 985.1
03 17.06 ЮЗ 2 н/о н/о +11.6 +10.9 95 +10 +10 1012.1 984.7
06 17.06 ЮЗ 2 н/о н/о +18.5 +11.1 62 +19 +19 1011.0 984.3 +9.9 +21.2
09 17.06 ЮЗ 3 н/о н/о +22.3 +10.6 47 +24 +24 комфорт 1010.0 983.7
12 17.06 ЮЗ 3 н/о н/о +20.2 +15.6 75 +23 +23 комфорт 1009.6 983.1
15 17.06 З 4 н/о н/о +19.0 +12.0 64 +20 +20 1009.5 982.9
18 17.06 З 4 н/о н/о +19.3 +11.1 59 +20 +20 1009.2 982.6 +18.1 +24.9 0.1

 

Местоположение метеостанции Мультия Кархила (Финляндия): широта 62.51 долгота 24.81 высота над уровнем моря 227 м.

В архиве по умолчанию представлена погода в Мультия Кархила за последнюю неделю. Архивные данные за месяц целиком и за предыдущие месяцы, начиная с января 2011 года, Вы можете получить, выбрав интересующий диапазон дат из раскрывающегося списка и нажав кнопку "Ввод!".


*Определитесь, кто Вы:
робот инопланетянин человек

Внимание! Время в таблицах - всемирное. Для получения местного времени необходимо прибавить поправку, которая равна 1 ч.

Смотрите также архив погоды в соседних городах и на ближайших метеорологических станциях:

Погода в Эхтяри (Финляндия) (30 км)
Погода в Ювяскюля (Финляндия) (46 км)
Погода в Виррат Айяннева (Финляндия) (68 км)
Погода в Алаярви Моксы (Финляндия) (70 км)
Погода в Аэропорту Халли (Финляндия) (72 км)
Погода в Халли (Финляндия) (75 км)
Погода в Юупайоки Хююеяля (Финляндия) (78 км)
Погода в Вийтасаари (Финляндия) (83 км)
Погода в Весанто (Финляндия) (94 км)
Погода в Лейвонмаки Савенахо (Финляндия) (97 км)

Пояснения к столбцам:

Ветер - указаны скорость ветра в м/с - средняя за 10 мин, порывы в срок и между сроками (в фигурных скобках) и направление, откуда дует ветер: С - северный, СВ - северо-восточный, В - восточный, ЮВ - юго-восточный, Ю - южный, ЮЗ - юго-западный, З - западный, СЗ - северо-западный.
Видимость - горизонтальная дальность видимости в метрах или километрах. При видимости от 1 до 10 км при отсутствии осадков обычно наблюдается дымка, при ухудшении видимости до 1 км и менее - туман. В сухую погоду видимость может ухудшаться дымом, пылью или мглою.
Явления - указаны атмосферные явления, наблюдавшиеся в срок или в последний час перед сроком; фигурными скобками обозначены явления, наблюдавшиеся между сроками (за 1-3 часа до срока); квадратными скобками обозначены град или гололедные отложения с указанием их диаметра в мм.
Облачность - указаны через наклонную черту общая и нижняя облачность в баллах и высота нижней границы облаков в метрах; квадратными скобками обозначены формы облаков: Ci - перистые, Cs - перисто-слоистые, Cc - перисто-кучевые, Ac - высококучевые, As - высокослоистые, Sc - слоисто-кучевые, Ns - слоисто-дождевые, Cu - кучевые, Cb - кучево-дождевые. Подробнее классификацию облаков см. в Атласе облаков (PDF).
T - Температура воздуха - температура, измеренная на высоте 2 м над землей.
Td - Температура точки росы - температура, при понижении до которой содержащийся в воздухе водяной пар достигнет насыщения.
f - Относительная влажность воздуха - влажноcть воздуха, измеренная на высоте 2 м над землей.
Te - Эффективная температура - температура, которую ощущает одетый по сезону человек в тени. Характеристика душности погоды. При расчете учитывается влияние влажности воздуха и скорости ветра на теплоощущения человека.
Tes - Эффективная температура на солнце - температура, которую ощущает человек, с поправкой на солнечный нагрев. Характеристика знойности погоды. Зависит от высоты солнца над горизонтом, облачности и скорости ветра. Ночью, в пасмурную погоду, а также при ветре 12 м/с и более поправка равна нулю.
P - Атмосферное давление - приведенное к уровню моря атмосферное давление.
Po - Атмосферное давление - измеренное на уровне метеостанции атмосферное давление.
Tmin - Минимальная температура - минимум температуры воздуха на высоте 2 м над землей.
Tmax - Максимальная температура - максимум температуры воздуха на высоте 2 м над землей.
R - Количество осадков - Количество выпавших осадков за период времени, мм. При наведении курсора мыши на число - период времени, за который выпало указанное количество осадков.
R24 - Количество осадков - Количество выпавших осадков за 24 часа, мм.
S - Снежный покров - Высота снежного покрова, см. При наведении курсора мыши на число - состояние снежного покрова и степень покрытия местности в баллах.